Location: Dürabuch
(48.2640°N, 11.2185°E)
Time: 03:45:36
(UTC+00:00)

Cosmos 2219 Rocket - Pass Details

Date: 23 May 2024
Orbit: 827 x 846 km, 71.0° (Epoch: 13 June)

Event Time Altitude Azimuth Distance (km) Brightness Sun altitude
Rises 01:48:53 0° 333° (NNW) 3,399 5.7 -12.7°
Reaches altitude 10° 01:51:21 10° 336° (NNW) 2,464 5.0 -12.4°
Maximum altitude 01:56:59 67° 59° (ENE) 913 2.6 -11.8°
Drops below altitude 10° 02:02:37 10° 142° (SE) 2,460 4.5 -11.2°
Sets 02:05:04 0° 145° (SE) 3,393 5.2 -11.0°
